Theta_e
323 322 321 320 318 316 315 314 313 312 312 312 312 313 313 312 312 311 310 309 308 307 306 305 304 303 303 303 302 302 301 301 300 299 299 298 298 297 297 297 296 296
317 316 316 316 315 314 313 312 312 312 312 312 313 312 312 311 310 308 307 306 305 304 303 303 302 302 301 301 300 300 299 299 299 298 298 297 297 297 297 296 296 296
314 314 314 314 313 312 312 312 312 312 312 312 312 311 310 308 307 305 304 304 303 303 302 302 301 301 300 300 299 299 298 298 298 298 297 297 297 297 296 296 296 296
314 313 313 312 312 312 312 312 312 313 312 312 310 309 307 306 305 304 303 303 302 302 301 301 300 300 299 299 299 298 298 298 297 297 297 297 296 296 296 296 296 296
313 312 312 312 312 312 312 312 312 312 311 309 308 307 305 305 304 303 303 302 302 301 301 300 300 299 299 298 298 298 297 297 297 297 296 296 296 296 296 296 296 296
312 312 312 312 312 312 312 312 311 310 308 307 306 305 304 304 303 302 302 302 301 301 300 300 299 299 298 298 298 297 297 297 296 296 296 296 296 296 296 295 295 295
312 312 312 312 312 312 312 310 309 308 306 305 305 304 303 303 302 302 301 301 301 300 300 299 299 298 298 297 297 296 296 296 296 296 296 296 295 295 295 295 295 295
312 312 312 312 312 311 310 308 307 306 305 304 304 303 302 302 302 301 301 300 300 300 299 299 298 297 297 297 296 296 296 296 296 295 295 295 295 295 295 295 295 295
312 312 312 311 310 309 307 306 305 305 304 303 302 302 302 301 301 300 300 300 299 299 299 298 297 297 297 296 296 296 296 295 295 295 295 295 295 295 295 294 294 294
312 312 311 310 308 307 306 305 304 303 303 302 301 301 301 300 300 299 299 299 299 298 297 297 297 296 296 296 296 295 295 295 295 295 295 295 295 294 294 294 294 293
312 311 309 308 307 305 304 303 303 302 302 301 301 300 300 299 299 299 299 298 298 297 297 297 297 296 296 296 295 295 295 295 295 294 294 294 294 294 293 293 293 293
310 309 308 306 305 304 303 303 302 302 301 301 300 299 299 299 299 298 298 297 297 297 297 297 296 296 295 295 295 295 294 294 294 294 294 294 293 293 293 293 293 293
309 307 306 305 304 303 302 302 302 301 301 300 299 299 299 299 298 298 298 298 298 297 297 296 296 295 295 295 295 294 294 294 294 294 293 293 293 293 293 293 293 293
307 306 305 303 303 302 302 301 301 301 300 299 299 299 299 299 299 299 299 299 298 297 296 296 295 295 294 294 294 294 294 294 293 293 293 293 293 292 292 292 292 293
306 305 303 302 302 301 301 301 300 300 299 299 299 299 299 299 299 299 299 298 297 296 295 295 294 294 294 294 294 294 293 293 293 293 292 292 292 292 292 292 292 293
305 304 303 302 301 301 300 300 299 299 299 298 299 299 300 300 300 299 298 297 296 295 295 294 294 294 293 293 293 293 293 292 292 292 292 292 292 292 292 292 292 292
304 303 302 301 301 300 300 299 299 298 298 299 299 300 300 300 300 299 298 296 295 294 294 293 293 293 293 293 292 292 292 292 292 292 292 292 292 292 292 292 292 292
303 302 301 300 300 299 299 299 298 298 298 299 299 300 300 299 299 298 297 295 294 294 293 293 293 293 293 292 292 292 292 292 292 292 292 292 292 292 292 292 292 293
302 301 300 300 299 299 298 298 298 298 299 299 299 299 299 299 298 297 295 294 293 293 293 293 292 292 292 292 292 292 291 292 292 291 291 291 291 291 292 292 292 292
301 300 299 299 299 298 298 298 298 298 298 299 299 299 298 298 297 295 294 293 293 292 292 292 292 292 292 291 291 291 291 291 291 291 291 291 291 292 292 292 292 291
300 300 299 299 299 298 298 298 298 298 298 298 299 298 298 297 295 294 293 293 292 292 292 292 292 291 291 291 291 291 291 291 291 291 291 291 291 292 291 291 291 291
299 299 299 298 298 298 297 298 298 298 298 298 298 298 297 295 294 294 293 292 292 292 291 291 291 291 291 290 291 291 291 291 291 291 291 292 292 291 291 291 290 290
299 298 298 298 297 297 297 297 298 298 298 298 298 297 296 295 294 293 292 292 291 291 291 291 290 290 290 290 290 290 291 291 291 291 291 291 291 291 291 290 290 289
298 298 298 297 297 297 297 297 297 298 298 297 297 296 295 294 293 292 292 291 291 291 290 290 290 290 290 290 290 290 290 290 291 291 291 291 291 291 291 290 289 288
298 297 297 296 296 297 297 297 297 297 297 296 296 295 294 293 292 291 291 291 290 290 290 290 290 290 290 290 290 290 290 290 290 290 290 291 291 291 291 290 289 288
297 297 296 296 296 296 297 297 297 297 296 296 295 294 293 292 292 291 291 290 290 289 289 289 289 289 289 289 289 289 289 289 289 289 289 290 290 289 290 290 289 288
Wind_Speed
26 25 24 22 20 17 14 14 13 11 11 10 9 8 7 5 3 2 1 1 1 2 3 4 5 6 6 7 7 8 8 9 9 10 10 10 10 9 10 10 11 11
24 23 21 19 18 17 16 15 13 12 12 10 9 7 6 4 3 2 1 1 1 2 3 4 5 6 6 7 8 9 9 10 10 10 11 10 10 11 11 11 13 14
21 20 19 19 19 18 16 15 14 13 11 10 8 7 5 4 3 2 1 0 1 2 3 4 5 7 7 8 9 9 10 10 10 11 11 11 11 12 12 13 14 16
20 21 21 20 18 17 16 15 14 12 10 9 8 7 6 5 4 2 1 1 1 3 4 5 7 8 9 10 10 11 11 11 11 11 11 12 12 13 13 15 16 17
22 22 20 19 17 17 16 14 12 11 10 9 8 8 6 5 4 2 1 1 2 4 5 6 8 9 10 11 11 12 12 11 11 11 11 12 13 15 16 17 18 19
22 20 19 18 17 16 15 14 13 12 11 10 9 7 6 5 4 3 2 3 4 5 6 7 9 10 11 12 12 12 12 11 12 12 12 13 15 17 18 20 21 22
21 20 20 19 17 16 15 14 13 12 11 10 9 7 6 5 4 3 3 3 4 6 7 9 10 11 11 12 12 12 12 12 13 14 15 16 17 18 20 22 23 24
21 20 20 19 18 17 15 14 14 12 11 10 9 8 7 5 4 3 3 4 5 7 8 10 11 11 11 12 12 13 14 14 16 16 17 18 19 20 22 23 24 25
21 20 20 19 17 17 16 15 14 13 12 11 9 8 6 5 4 3 3 5 6 8 9 10 11 12 12 13 13 14 15 16 17 18 19 20 21 22 23 24 25 25
21 20 20 19 18 17 16 16 15 13 13 11 9 8 6 5 4 3 3 5 7 8 10 10 12 13 13 14 15 16 16 17 18 19 20 21 22 23 23 24 24 25
21 21 20 19 18 18 17 17 15 14 12 11 9 7 5 4 3 3 4 6 7 8 10 11 12 13 14 15 16 17 17 18 19 20 20 21 22 22 23 23 24 25
22 21 21 20 20 19 18 17 15 14 12 10 8 6 4 3 3 3 5 6 8 9 11 12 13 14 15 15 16 17 18 19 20 21 22 22 22 22 22 23 25 26
22 22 22 21 20 19 18 17 15 13 11 9 8 6 5 4 3 4 5 7 9 10 12 13 14 15 16 16 18 19 19 20 21 22 22 21 21 22 23 24 26 27
23 23 22 22 21 20 18 16 14 12 11 9 8 7 5 4 4 4 6 8 10 11 13 14 14 15 16 17 18 20 20 21 21 22 22 22 22 23 24 25 27 30
24 24 23 22 21 20 18 16 14 12 11 10 8 7 5 4 4 5 7 9 10 12 13 13 14 15 17 18 19 20 20 21 21 21 22 24 24 25 27 28 30 32
25 25 24 23 21 19 17 15 14 13 11 10 8 6 5 4 4 6 8 9 10 11 12 13 14 16 17 19 20 21 21 21 22 23 24 26 28 29 30 32 33 35
26 25 24 23 21 19 17 16 14 13 11 10 8 6 4 4 5 7 8 9 10 11 12 13 14 16 17 19 20 21 22 23 24 25 26 28 30 32 34 35 36 38
27 26 24 22 21 19 17 16 15 13 11 9 7 5 4 5 6 7 8 9 10 10 12 13 15 16 18 19 20 21 23 24 26 27 28 29 31 33 35 37 39 41
27 26 24 22 20 19 17 16 15 13 11 9 7 5 5 5 6 8 9 9 10 11 12 14 16 17 18 20 21 23 24 25 26 28 29 31 32 35 37 39 41 43
28 26 24 22 21 19 18 16 14 12 10 9 7 6 5 6 7 8 9 10 11 11 13 15 17 18 19 21 22 23 25 26 27 29 30 32 34 36 39 41 43 44
28 26 24 23 21 20 18 16 14 12 10 9 7 5 5 6 7 8 9 11 12 13 14 16 17 19 20 22 23 24 26 27 28 30 32 34 36 38 40 42 43 44
28 26 25 24 22 20 18 16 14 12 10 8 6 5 5 6 7 9 10 11 13 14 15 16 17 19 21 23 24 26 27 28 30 32 34 36 37 39 41 42 43 44
29 27 25 24 22 20 18 16 14 12 10 8 6 6 6 7 8 9 11 12 14 15 16 16 17 19 21 24 25 27 29 30 32 34 36 37 39 40 42 43 43 44
29 27 25 23 22 20 18 16 14 11 9 7 7 6 7 7 9 10 12 13 15 15 16 17 18 20 22 24 26 28 30 32 34 36 38 39 40 41 42 43 44 45
29 28 25 23 21 20 18 15 13 10 9 8 7 7 8 8 10 11 13 14 15 16 17 18 19 21 23 25 27 29 31 34 36 38 39 41 42 43 43 44 45 46
29 27 25 23 21 19 16 14 12 11 9 8 8 8 9 10 11 12 14 15 16 17 18 19 21 22 24 25 27 30 32 35 37 39 41 42 43 44 45 46 47 48
Wind_Direction
224 226 228 229 230 224 206 190 181 174 171 168 165 165 167 168 172 179 200 325 352 349 351 349 346 344 339 339 337 335 335 336 338 340 341 343 343 347 348 345 345 345
221 221 219 214 204 191 178 169 166 166 165 163 163 166 170 174 176 173 152 30 9 356 351 345 339 338 336 336 336 337 338 337 337 337 337 339 340 343 345 345 344 343
209 201 192 185 177 171 166 164 165 164 162 164 168 172 174 173 171 163 157 164 352 338 333 336 336 335 335 335 335 334 333 332 331 331 332 333 335 338 340 341 342 340
182 177 172 169 166 164 164 165 165 164 167 173 174 175 176 173 174 176 190 268 315 324 329 332 333 332 330 329 328 326 325 325 326 327 329 330 331 333 334 336 339 339
168 167 166 164 163 163 164 166 169 172 174 178 177 177 178 178 185 196 222 279 305 318 324 326 325 324 323 321 320 319 319 320 322 324 326 329 328 329 332 333 334 334
165 164 164 164 165 167 170 171 174 177 177 179 181 181 182 186 194 208 243 286 305 313 317 320 320 319 317 317 315 315 317 318 321 323 325 327 328 329 331 331 332 333
166 167 166 168 170 172 175 176 177 179 180 182 185 185 187 193 203 224 255 286 302 310 317 318 317 317 316 316 316 316 319 320 322 324 325 326 328 329 330 330 331 332
170 170 171 173 174 175 176 179 180 181 182 186 188 190 194 199 212 237 262 290 305 312 317 317 316 317 316 317 318 318 320 321 322 324 324 325 327 328 329 330 330 331
174 174 174 176 177 177 179 181 184 184 185 188 190 194 199 206 221 248 275 297 311 315 317 317 317 317 316 316 316 315 317 319 320 322 324 326 328 329 330 330 330 330
177 177 177 178 179 181 183 185 186 187 187 188 192 197 203 212 233 265 292 308 316 317 317 317 315 314 314 313 313 314 316 318 321 323 325 328 329 330 331 331 331 332
180 180 180 182 183 184 187 188 188 190 190 191 194 199 208 219 247 285 305 314 316 315 315 314 313 312 311 312 314 317 319 321 323 325 326 328 330 330 331 332 333 335
183 184 184 185 187 188 190 191 192 193 193 195 197 201 213 232 263 295 306 312 314 315 315 313 312 312 313 315 317 318 320 322 324 325 327 328 329 330 331 333 335 336
186 187 187 189 191 192 193 194 195 196 196 198 202 208 221 244 272 293 306 314 316 316 315 313 314 314 315 316 317 318 320 321 322 323 324 325 327 329 331 333 334 335
189 190 190 192 194 195 196 197 197 198 199 201 207 215 225 244 271 296 312 317 317 316 314 314 314 314 314 315 315 317 318 319 321 320 320 322 325 327 330 332 333 333
193 193 194 195 196 197 197 198 198 198 201 205 209 215 226 247 278 305 316 316 315 315 314 313 313 312 313 313 314 316 316 317 318 318 320 323 324 326 329 331 331 331
197 197 197 197 198 198 198 198 199 201 204 208 212 218 232 259 291 307 313 314 313 313 312 311 311 311 312 314 315 315 316 316 317 319 322 324 325 326 328 329 330 329
200 199 199 199 198 199 199 200 202 205 207 210 215 225 243 269 295 305 309 312 312 311 310 309 309 311 312 314 314 314 315 317 318 320 322 324 325 326 326 327 327 326
202 201 200 200 200 200 201 203 205 207 209 212 217 229 252 276 295 304 310 312 312 311 309 308 310 311 312 313 313 313 314 316 317 319 321 323 324 325 325 325 325 325
203 203 201 201 202 202 204 206 207 209 209 213 220 234 256 280 297 307 312 313 312 311 310 310 312 312 312 312 311 311 312 313 315 317 319 321 322 323 324 324 324 324
204 203 202 203 204 205 207 208 208 209 210 215 224 240 265 289 303 310 313 311 311 312 311 312 313 312 310 310 309 309 311 312 314 316 318 320 321 322 323 323 324 324
205 203 203 205 206 208 208 208 208 210 213 221 232 250 275 296 305 308 310 310 310 311 311 311 311 309 308 307 308 309 310 311 313 315 317 319 320 321 322 323 323 323
205 205 206 207 209 209 208 208 210 212 218 227 242 264 283 297 304 307 308 308 308 309 309 308 307 307 307 307 308 309 310 312 313 314 316 318 320 321 322 322 323 324
206 207 209 209 209 208 208 209 212 216 223 235 252 270 286 298 302 304 305 305 305 306 306 305 305 305 306 306 308 310 311 313 314 315 317 318 319 320 321 322 324 326
207 208 210 210 209 208 209 211 214 220 229 242 258 273 287 295 298 301 303 303 302 302 303 304 305 305 306 308 310 312 313 314 315 316 317 318 318 319 319 322 325 328
209 209 209 208 209 209 210 213 218 224 234 245 260 275 286 292 295 298 300 300 300 301 303 305 306 307 308 310 312 314 316 317 318 318 319 319 319 319 319 322 326 329
209 208 208 208 209 211 212 216 222 229 238 250 262 275 285 291 294 295 295 296 298 300 303 305 307 308 309 311 314 316 318 319 320 321 320 320 321 322 323 324 326 328